Location: Kikino
(54.4440°N, 112.0940°W)
Time: 19:54:58
(UTC+00:00)

A-11 Canister half - Pass Details

Date: 21 May 2024
Orbit: 1525 x 1683 km, 47.3° (Epoch: 12 June)

Event Time Altitude Azimuth Distance (km) Brightness Sun altitude
Rises 09:28:13 0° 275° (W) 4,763 11.3 -10.7°
Reaches altitude 10° 09:31:22 10° 270° (W) 3,798 10.8 -10.5°
Maximum altitude 09:40:30 49° 200° (SSW) 2,016 9.2 -9.8°
Drops below altitude 10° 09:49:54 10° 129° (SE) 3,907 11.1 -9.1°
Sets 09:53:12 0° 125° (SE) 4,908 11.7 -8.8°
